This demonstration page uses our WeatherBlox Daily Observations layout. Learn more.

Left ArrowRight Arrow

39.12711, -84.51439

Hourly Observations for July 25, 2018

Temp ( °F °C ) Dew Point ( °F °C ) Humidity (%) Winds ( mph kmh ) Pressure ( in mb ) Visibility ( mi km ) Precip ( " mm )
12:53 am 00:53 Clear 66 18.9 66 18.9 100 100 Calm 29.97 1015 10 16 0.00 0.00
1:53 am 01:53 Mostly Cloudy 66 18.9 66 18.9 100 100 Calm 29.97 1015 10 16 0.00 0.00
2:53 am 02:53 Mostly Cloudy 66 18.9 66 18.9 100 100 Calm 29.96 1014 9 14 0.00 0.00
3:53 am 03:53 Mostly Cloudy 67 19.4 67 19.4 100 100 Calm 29.95 1014 10 16 0.00 0.00
4:53 am 04:53 Mostly Clear 66 18.9 66 18.9 100 100 Calm 29.95 1014 9 14 0.00 0.00
5:36 am 05:36 Clear with Mist and Fog 65 18.3 65 18.3 100 100 Calm 29.94 1014 2 2 0.00 0.00
5:45 am 05:45 Clear with Fog 65 18.3 65 18.3 100 100 Calm 29.94 1014 1 1 0.00 0.00
5:53 am 05:53 Clear with Mist and Fog 64 17.8 64 17.8 100 100 Calm 29.96 1015 2 2 0.00 0.00
5:59 am 05:59 Clear with Mist and Fog 64 17.8 64 17.8 100 100 Calm 29.94 1014 4 6 0.00 0.00
6:53 am 06:53 Mostly Sunny 65 18.3 65 18.3 100 100 Calm 29.96 1015 10 16 0.00 0.00
7:53 am 07:53 Sunny 69 20.6 68 20 96 96 Calm 29.97 1015 10 16 0.00 0.00
8:53 am 08:53 Sunny 75 23.9 69 20.6 82 82 Calm 29.98 1015 10 16 0.00 0.00
9:53 am 09:53 Sunny 77 25 68 20 74 74 W 3 6 29.99 1016 10 16 0.00 0.00
10:53 am 10:53 Sunny 79 26.1 68 20 69 69 Calm 29.98 1015 10 16 0.00 0.00
11:53 am 11:53 Sunny 82 27.8 67 19.4 60 60 NW 8 13 29.98 1015 10 16 0.00 0.00
12:53 pm 12:53 Mostly Sunny 83 28.3 66 18.9 57 57 NNW 6 9 29.97 1015 10 16 0.00 0.00
1:53 pm 13:53 Mostly Sunny 85 29.4 65 18.3 51 51 W 8 13 29.96 1015 10 16 0.00 0.00
2:53 pm 14:53 Partly Cloudy 87 30.6 66 18.9 50 50 VRB 7 11 29.94 1014 10 16 0.00 0.00
3:53 pm 15:53 Partly Cloudy 86 30 63 17.2 46 46 WNW 10 17 29.93 1014 10 16 0.00 0.00
4:53 pm 16:53 Mostly Sunny 87 30.6 62 16.7 43 43 NW 10 17 29.92 1013 10 16 0.00 0.00
5:53 pm 17:53 Partly Cloudy 87 30.6 61 16.1 42 42 N 10 17 29.92 1013 10 16 0.00 0.00
6:53 pm 18:53 Mostly Sunny 86 30 60 15.6 42 42 N 7 11 29.91 1013 10 16 0.00 0.00
7:53 pm 19:53 Sunny 84 28.9 61 16.1 46 46 NW 9 15 29.92 1013 10 16 0.00 0.00
8:53 pm 20:53 Sunny 81 27.2 62 16.7 53 53 NW 3 6 29.93 1014 10 16 0.00 0.00
9:53 pm 21:53 Clear 71 21.7 66 18.9 84 84 Calm 29.94 1014 10 16 0.00 0.00
10:53 pm 22:53 Clear 70 21.1 66 18.9 87 87 Calm 29.95 1014 10 16 0.00 0.00
11:53 pm 23:53 Clear 69 20.6 66 18.9 90 90 Calm 29.95 1014 10 16 0.00 0.00

Powered by AerisWeather